Terug naar catalogus

STARLINK-37800

ActiefCommunicatieSSO
NORAD 69436·PAYLOAD·🇺🇸 United States

Gelanceerd Jun 7, 2026 vanaf Vandenberg Space Force Base

Loading…

Volgende Passages (komende 24 uur)

TLE

VersSource: CelesTrak SupGP

Epoch: Sep 14, 2026, 21:32 UTC

1 69436C 26126S   26257.89770833  .00035657  00000+0  11074-2 0  2579
2 69436  97.2849 119.2044 0001963  94.8863 327.0935 15.33406258    14

Volg STARLINK-37800 in realtime met AllMySat

Download on the App Store